Belmar, NJ

6:43 AM EST on December 03, 2016 (GMT -0500)
Allaire

Weather History for KBLM - December, 2012

Change the Weather History Date:

Monday, December 17, 2012

  Actual Average Record
Temperature  
Mean Temperature 46 °F -  
Max Temperature 51 °F 42 °F 64 °F (2000)
Min Temperature 42 °F 29 °F 17 °F (2010)
Degree Days  
Heating Degree Days 19    
Moisture  
Dew Point 45 °F    
Average Humidity 96    
Maximum Humidity 100    
Minimum Humidity 93    
Precipitation  
Precipitation 0.08 in - - ()
Sea Level Pressure  
Sea Level Pressure 29.81 in    
Wind  
Wind Speed 8 mph (NE)    
Max Wind Speed 13 mph    
Max Gust Speed 17 mph    
Visibility 5 miles    
Events      
Averages and records for this station are not official NWS values.
T = Trace of Precipitation, MM = Missing Value Source: NWS Daily Summary

Daily Weather History Graph

Daily Weather History Graph

Search for Another Location

Airport or City:

Trip Planner

Search our weather history database for the weather conditions in past years. The results will help you decide how hot, cold, wet, or windy it might be!

Date:

Astronomy

Dec. 17, 2012 Rise Set
Actual Time 7:13 AM EST 4:32 PM EST
Civil Twilight 6:42 AM EST 5:03 PM EST
Nautical Twilight 6:08 AM EST 5:37 PM EST
Astronomical Twilight 5:35 AM EST 6:10 PM EST
Moon 10:20 AM EST (12/17) 9:51 PM EST (12/17)
Length of Visible Light 10h 20m
Length of Day
9h 19m
Waxing Crescent, 24% of the Moon is Illuminated
Dec 17
Waxing Crescent
Dec 20
First Quarter
Dec 28
Full
Jan 4
Last Quarter
Jan 11
New

Hourly Weather History & Observations

Time (EST) Temp. Windchill Dew Point Humidity Pressure Visibility Wind Dir Wind Speed Gust Speed Precip Events Conditions
12:15 AM 46.4 °F 41.9 °F 46.4 °F 100% 29.88 in 10.0 mi NE 9.2 mph - 0.01 in   Overcast
12:35 AM 46.4 °F 42.4 °F 44.6 °F 93% 29.89 in 10.0 mi NE 8.1 mph - 0.01 in   Overcast
12:55 AM 46.4 °F 42.4 °F 44.6 °F 93% 29.88 in 10.0 mi NE 8.1 mph - 0.01 in   Overcast
1:15 AM 46.4 °F 42.9 °F 44.6 °F 93% 29.89 in 10.0 mi NNE 6.9 mph - N/A   Overcast
1:35 AM 46.4 °F 41.9 °F 44.6 °F 93% 29.88 in 10.0 mi NE 9.2 mph - 0.01 in   Overcast
1:55 AM 46.4 °F 43.5 °F 44.6 °F 93% 29.87 in 10.0 mi North 5.8 mph - 0.02 in   Overcast
2:15 AM 46.4 °F 43.5 °F 44.6 °F 93% 29.87 in 10.0 mi NNE 5.8 mph - N/A   Overcast
2:35 AM 46.4 °F 42.4 °F 44.6 °F 93% 29.86 in 10.0 mi NE 8.1 mph - N/A   Overcast
2:55 AM 46.4 °F 43.5 °F 44.6 °F 93% 29.88 in 10.0 mi North 5.8 mph - N/A   Overcast
3:15 AM 46.4 °F 42.9 °F 44.6 °F 93% 29.88 in 10.0 mi NNE 6.9 mph - N/A   Overcast
3:35 AM 46.4 °F 43.5 °F 44.6 °F 93% 29.87 in 7.0 mi NE 5.8 mph - N/A   Overcast
3:55 AM 46.4 °F 40.7 °F 44.6 °F 93% 29.83 in 10.0 mi East 12.7 mph 17.3 mph N/A   Overcast
4:15 AM 46.4 °F 42.9 °F 44.6 °F 93% 29.86 in 10.0 mi North 6.9 mph - N/A   Overcast
4:35 AM 46.4 °F 42.4 °F 44.6 °F 93% 29.86 in 10.0 mi NNE 8.1 mph - N/A   Overcast
4:55 AM 44.6 °F 39.7 °F 44.6 °F 100% 29.85 in 10.0 mi NNE 9.2 mph - N/A   Overcast
5:15 AM 44.6 °F 40.2 °F 42.8 °F 93% 29.85 in 8.0 mi North 8.1 mph - N/A   Overcast
5:35 AM 44.6 °F 39.7 °F 42.8 °F 93% 29.86 in 8.0 mi North 9.2 mph - N/A   Overcast
5:55 AM 44.6 °F 40.2 °F 42.8 °F 93% 29.85 in 8.0 mi North 8.1 mph - N/A   Overcast
6:15 AM 44.6 °F 40.2 °F 42.8 °F 93% 29.85 in 8.0 mi North 8.1 mph - N/A   Overcast
6:35 AM 42.8 °F 37.5 °F 42.8 °F 100% 29.86 in 7.0 mi North 9.2 mph - N/A   Overcast
6:55 AM 42.8 °F 37.5 °F 41.0 °F 93% 29.86 in 7.0 mi North 9.2 mph - N/A   Overcast
7:15 AM 42.8 °F 38.0 °F 42.8 °F 100% 29.87 in 7.0 mi North 8.1 mph - N/A   Overcast
7:35 AM 42.8 °F 38.0 °F 41.0 °F 93% 29.87 in 4.0 mi North 8.1 mph - N/A   Overcast
7:55 AM 42.8 °F 38.6 °F 42.8 °F 100% 29.87 in 2.5 mi North 6.9 mph - N/A   Overcast
8:15 AM 42.8 °F 39.3 °F 42.8 °F 100% 29.86 in 1.5 mi North 5.8 mph - N/A   Overcast
8:35 AM 42.8 °F 37.5 °F 41.0 °F 93% 29.87 in 1.2 mi North 9.2 mph - N/A   Overcast
8:55 AM 42.8 °F 37.0 °F 42.8 °F 100% 29.87 in 2.0 mi NNE 10.4 mph - N/A   Overcast
9:15 AM 44.6 °F 39.2 °F 42.8 °F 93% 29.87 in 2.5 mi NNE 10.4 mph - N/A   Overcast
9:35 AM 44.6 °F 40.7 °F 42.8 °F 93% 29.87 in 2.5 mi NNE 6.9 mph - N/A   Overcast
9:55 AM 44.6 °F 40.7 °F 42.8 °F 93% 29.88 in 3.0 mi NNE 6.9 mph - N/A   Overcast
10:15 AM 44.6 °F 39.7 °F 44.6 °F 100% 29.88 in 4.0 mi NNE 9.2 mph - N/A   Overcast
10:35 AM 44.6 °F 39.7 °F 44.6 °F 100% 29.87 in 4.0 mi NE 9.2 mph - N/A   Overcast
10:55 AM 44.6 °F 40.2 °F 44.6 °F 100% 29.86 in 5.0 mi NNE 8.1 mph - N/A   Overcast
11:15 AM 44.6 °F 39.7 °F 44.6 °F 100% 29.86 in 5.0 mi NE 9.2 mph - N/A   Overcast
11:35 AM 44.6 °F 40.2 °F 44.6 °F 100% 29.87 in 6.0 mi NE 8.1 mph - N/A   Overcast
11:55 AM 44.6 °F 41.4 °F 42.8 °F 93% 29.87 in 8.0 mi North 5.8 mph - N/A   Overcast
12:15 PM 44.6 °F 40.2 °F 42.8 °F 93% 29.86 in 7.0 mi NNE 8.1 mph - N/A   Overcast
12:35 PM 44.6 °F 40.7 °F 44.6 °F 100% 29.85 in 5.0 mi North 6.9 mph - N/A   Overcast
12:55 PM 44.6 °F 40.2 °F 42.8 °F 93% 29.85 in 7.0 mi NNE 8.1 mph - N/A   Overcast
1:15 PM 44.6 °F 39.7 °F 44.6 °F 100% 29.83 in 4.0 mi NE 9.2 mph - N/A   Overcast
1:35 PM 44.6 °F 40.2 °F 44.6 °F 100% 29.82 in 3.0 mi NNE 8.1 mph - N/A   Overcast
1:55 PM 44.6 °F 40.7 °F 44.6 °F 100% 29.82 in 2.5 mi NNE 6.9 mph - N/A   Overcast
2:15 PM 44.6 °F 40.7 °F 42.8 °F 93% 29.82 in 4.0 mi NNE 6.9 mph - N/A   Overcast
2:35 PM 44.6 °F 38.8 °F 42.8 °F 93% 29.80 in 2.0 mi NE 11.5 mph - N/A   Overcast
2:55 PM 44.6 °F 41.4 °F 42.8 °F 93% 29.80 in 1.2 mi NNE 5.8 mph - N/A   Overcast
3:15 PM 44.6 °F 39.2 °F 42.8 °F 93% 29.79 in 1.2 mi ENE 10.4 mph - N/A   Overcast
3:35 PM 44.6 °F 39.7 °F 42.8 °F 93% 29.79 in 0.8 mi ENE 9.2 mph - N/A   Overcast
3:55 PM 44.6 °F 39.2 °F 44.6 °F 100% 29.78 in 0.8 mi NE 10.4 mph - N/A   Overcast
4:15 PM 44.6 °F 40.2 °F 44.6 °F 100% 29.78 in 1.0 mi NE 8.1 mph - N/A   Overcast
4:35 PM 44.6 °F 39.7 °F 44.6 °F 100% 29.78 in 2.5 mi NE 9.2 mph - N/A   Overcast
4:55 PM 44.6 °F 40.2 °F 44.6 °F 100% 29.79 in 5.0 mi NE 8.1 mph - N/A   Overcast
7:35 PM 46.4 °F 41.5 °F 44.6 °F 93% 29.73 in 1.2 mi ENE 10.4 mph - N/A   Overcast
7:55 PM 46.4 °F 41.9 °F 46.4 °F 100% 29.73 in 1.0 mi NE 9.2 mph - N/A   Overcast
8:15 PM 46.4 °F 41.1 °F 46.4 °F 100% 29.71 in 0.8 mi ENE 11.5 mph - N/A   Overcast
8:35 PM 46.4 °F 41.9 °F 44.6 °F 93% 29.71 in 0.8 mi NE 9.2 mph - N/A   Overcast
8:55 PM 48.2 °F - 46.4 °F 93% 29.70 in 0.8 mi NE 8.1 mph - N/A   Overcast
9:15 PM 48.2 °F - 46.4 °F 93% 29.69 in 0.8 mi NE 5.8 mph - N/A   Overcast
9:35 PM 48.2 °F - 48.2 °F 100% 29.67 in 0.8 mi East 8.1 mph - N/A   Overcast
9:55 PM 50.0 °F - 50.0 °F 100% 29.67 in 1.8 mi ENE 8.1 mph - N/A   Overcast
10:15 PM 48.2 °F - 46.4 °F 93% 29.66 in 2.0 mi ENE 8.1 mph - N/A   Overcast
10:35 PM 48.2 °F - 48.2 °F 100% 29.66 in 0.5 mi ENE 5.8 mph - N/A   Overcast
10:55 PM 48.2 °F - 46.4 °F 93% 29.64 in 1.0 mi ENE 5.8 mph - 0.02 in   Overcast
11:15 PM 50.0 °F - 48.2 °F 94% 29.63 in 2.5 mi East 8.1 mph - 0.01 in   Overcast
11:35 PM 50.0 °F - 50.0 °F 100% 29.63 in 3.0 mi East 8.1 mph - 0.02 in   Overcast
11:55 PM 51.8 °F - 51.8 °F 100% 29.61 in 2.5 mi SSE 4.6 mph - 0.03 in   Overcast